TDRS 3

Last updated on Sun Nov 02 2025 00:02:40 GMT+0000 (Coordinated Universal Time)

1 19548U 88091B 25305.45815653 -.00000290 00000+0 00000+0 0 9995 2 19548 12.7776 342.4980 0039475 340.6863 193.9205 1.00269400123105
UTC large
Height (km)
Speed (km/s)
/
Latitude / Longitude
Inclination (degrees)
Orbital Period (minutes)
Azimuth
Elevation
Range (km)
Doppler Factor

Next 0 passes for location: London (51.5072 / 0.1276)

Sorry there are no passes over London.